Flag for Russia Weather past 2 weeks in Syktyvkar, Russia

Now
70 °F

Passing clouds.


Feels Like: 70 °F
Forecast: 58 / 85 °F
Wind: 6 mph from Northeast

Location: Syktyvkar Airport

Current Time: May 27, 2015 at 3:32:03 PM

Latest Report: May 27, 2015 at 3:00 PM


Visibility: N/A

Pressure: 29.95 "Hg

Humidity: 40%

Dew point: 45 °F

Location of SyktyvkarLocation

Historic Weather in Syktyvkar — Graph

°F

Syktyvkar temperature yesterday

Maximum temperature yesterday: 70 °F (at 3:00 PM)
Minimum temperature yesterday: 43 °F (at 1:00 AM)
Average temperature yesterday: 58 °F

Past Weeks' High & Low Weather Summary

 TemperatureHumidityPressure
High81 °F (May 22, 1:00 PM)94% (May 15, 11:00 PM)30.04 "Hg (May 15, 11:00 PM)
Low43 °F (May 14, 3:30 AM)14% (May 12, 2:00 PM)29.39 "Hg (May 17, 11:00 PM)
Average60 °F54%29.79 "Hg
* Reported May 12 2:00 PM — May 27 2:00 PM, Syktyvkar, Weather by CustomWeather, © 2015

Note: Actual official high and low records may vary slightly from our data, if they occured in-between our weather recording intervals... More about our weather records

Advertising

Syktyvkar weather history for previous 24 hours

 ConditionsComfort  
Time TempWeatherWind HumidityBarometerVisibility
2:00 PM
Wed, May 27
73 °FPassing clouds.1 mph31%29.95 "HgN/A
1:30 PM72 °FPassing clouds.6 mph33%29.95 "HgN/A
1:00 PM72 °FPassing clouds.1 mph33%29.95 "HgN/A
12:30 PM72 °FPassing clouds.3 mph36%29.95 "HgN/A
12:00 PM72 °FPassing clouds.1 mph33%29.95 "HgN/A
11:30 AM72 °FPassing clouds.No wind41%29.95 "HgN/A
11:00 AM70 °FPassing clouds.1 mph40%29.95 "HgN/A
10:30 AM68 °FSunny.3 mph49%29.95 "Hg10 mi
10:00 AM66 °FSunny.3 mph49%29.95 "Hg10 mi
9:30 AM66 °FSunny.1 mph46%29.95 "Hg10 mi
9:00 AM64 °FSunny.1 mph56%29.95 "Hg10 mi
8:30 AM63 °FPassing clouds.1 mph56%29.95 "HgN/A
8:00 AM63 °FPassing clouds.1 mph56%29.95 "HgN/A
7:30 AM61 °FSunny.1 mph59%29.95 "Hg10 mi
7:00 AM59 °FSunny.No wind63%29.95 "Hg10 mi
6:30 AM57 °FSunny.1 mph63%29.95 "Hg10 mi
6:00 AM57 °FSunny.1 mph67%29.95 "Hg10 mi
5:30 AM57 °FSunny.No wind67%29.95 "Hg10 mi
5:00 AM54 °FSunny.No wind77%29.95 "Hg10 mi
4:30 AM52 °FSunny.1 mph77%29.95 "Hg10 mi
4:00 AM52 °FSunny.No wind72%29.95 "Hg10 mi
3:30 AM52 °FSunny.3 mph67%29.95 "Hg10 mi
3:00 AM52 °FClear.3 mph67%29.95 "Hg10 mi
2:30 AM52 °FClear.3 mph72%29.95 "Hg10 mi
2:00 AM52 °FClear.1 mph77%29.95 "Hg10 mi
1:30 AM54 °FPassing clouds.1 mph67%29.95 "HgN/A
1:00 AM55 °FPassing clouds.3 mph63%29.95 "HgN/A
12:30 AM54 °FPassing clouds.1 mph67%29.95 "HgN/A
12:00 AM55 °FPassing clouds.No wind63%29.95 "HgN/A
11:30 PM
Tue, May 26
55 °FPassing clouds.1 mph59%29.95 "HgN/A
11:00 PM55 °FPassing clouds.3 mph63%29.95 "HgN/A
10:30 PM55 °FPassing clouds.1 mph63%29.95 "HgN/A
10:00 PM59 °FPassing clouds.3 mph55%29.95 "HgN/A
9:30 PM59 °FPartly sunny.3 mph55%29.95 "HgN/A
9:00 PM61 °FPartly sunny.3 mph52%29.95 "HgN/A
8:30 PM61 °FScattered clouds.3 mph52%29.95 "HgN/A
8:00 PM61 °FScattered clouds.3 mph55%29.95 "HgN/A
7:30 PM64 °FScattered clouds.3 mph43%29.95 "HgN/A
7:00 PM66 °FPassing clouds.1 mph37%29.95 "HgN/A
6:30 PM66 °FScattered clouds.1 mph37%29.95 "HgN/A
6:00 PM66 °FScattered clouds.3 mph35%29.95 "HgN/A
5:30 PM68 °FPartly sunny.6 mph30%29.95 "HgN/A
5:00 PM68 °FPartly sunny.6 mph30%29.95 "HgN/A
4:30 PM68 °FPartly sunny.8 mph30%29.95 "HgN/A
4:00 PM70 °FPartly sunny.10 mph29%29.95 "HgN/A
3:30 PM70 °FPartly sunny.8 mph27%29.95 "HgN/A
3:00 PM70 °FScattered clouds.10 mph27%29.95 "HgN/A
Weather by CustomWeather, © 2015

See weather overviewHow to use our weather pages